Date,TemperatureHighF,TemperatureAvgF,TemperatureLowF,DewpointHighF,DewpointAvgF,DewpointLowF,HumidityHigh,HumidityAvg,HumidityLow,PressureMaxIn,PressureMinIn,WindSpeedMaxMPH,WindSpeedAvgMPH,GustSpeedMaxMPH,PrecipitationSumIn
2013-3-1,44.0,37.0,31.0,35.0,28.9,23.0,96,74,52,0.00,40.00,5,2,11,0.03
2013-3-2,40.0,34.7,29.0,27.0,22.6,20.0,91,62,50,0.00,40.00,5,2,13,0.00
2013-3-3,38.0,31.5,28.0,27.0,19.0,14.0,91,60,43,0.00,40.00,6,3,16,0.02
2013-3-4,41.0,32.5,26.0,19.0,16.9,14.0,68,53,41,0.00,40.00,12,6,22,0.01
2013-3-5,47.0,36.4,25.0,25.0,22.6,18.0,82,59,41,0.00,40.00,6,3,15,0.00
2013-3-6,43.0,38.0,33.0,34.0,27.3,24.0,77,66,53,0.00,40.00,11,5,25,0.00
2013-3-7,38.0,34.7,31.0,31.0,27.9,23.0,95,77,58,0.00,40.00,6,4,17,0.04
2013-3-8,40.0,33.6,30.0,32.0,29.7,23.0,95,86,59,0.00,40.00,5,3,18,0.36
2013-3-9,56.0,38.9,22.0,24.0,22.1,19.0,90,55,23,0.00,40.00,5,2,15,0.26
2013-3-10,53.0,39.4,24.0,33.0,26.7,21.0,89,63,36,0.00,40.00,7,3,13,0.04
2013-3-11,54.0,44.2,33.0,45.0,37.0,30.0,90,76,53,0.00,40.00,10,5,20,0.00
2013-3-12,56.0,51.8,43.0,52.0,46.9,38.0,91,83,73,0.00,40.00,15,10,30,0.42
2013-3-13,49.0,40.3,31.0,39.0,28.6,20.0,95,67,33,0.00,40.00,10,4,23,0.16
2013-3-14,36.0,31.7,27.0,28.0,10.3,2.0,71,42,25,0.00,40.00,12,8,27,0.00
2013-3-15,40.0,34.0,27.0,30.0,16.7,4.0,72,50,31,0.00,40.00,13,8,24,0.00
2013-3-16,37.0,31.8,27.0,28.0,20.6,14.0,92,65,41,0.00,40.00,8,2,14,0.01
2013-3-17,39.0,32.0,25.0,29.0,14.6,6.0,92,52,25,0.00,40.00,6,2,20,0.01
2013-3-18,37.0,27.4,18.0,27.0,11.9,6.0,94,55,31,0.00,40.00,8,3,15,0.00
2013-3-19,42.0,34.1,28.0,36.0,30.7,23.0,95,88,60,0.00,40.00,4,2,13,0.43
2013-3-20,42.0,34.0,27.0,23.0,17.0,13.0,74,51,30,0.00,40.00,13,6,23,0.04
2013-3-21,40.0,33.2,28.0,21.0,14.6,8.0,76,49,26,0.00,40.00,5,3,14,0.00
2013-3-22,40.0,32.7,26.0,22.0,16.5,9.0,65,51,41,0.00,40.00,13,7,22,0.00
2013-3-23,43.0,37.5,32.0,22.0,18.3,13.0,61,46,31,0.00,40.00,12,8,27,0.00
2013-3-24,47.0,36.5,27.0,24.0,19.4,13.0,68,51,35,0.00,40.00,6,3,17,0.00
2013-3-25,47.0,38.7,31.0,25.0,22.2,21.0,74,53,36,0.00,40.00,9,3,20,0.00
2013-3-26,50.0,39.7,31.0,29.0,25.4,21.0,82,59,33,0.00,40.00,8,2,17,0.00
2013-3-27,54.0,39.4,29.0,27.0,22.3,18.0,75,53,27,0.00,40.00,9,4,26,0.00
2013-3-28,49.0,45.5,40.0,31.0,29.2,28.0,63,53,47,0.00,40.00,4,2,11,0.00
2013-3-29,55.0,42.9,28.0,30.0,27.0,24.0,90,57,31,0.00,40.00,11,3,18,0.00
2013-3-30,60.0,45.6,32.0,31.0,24.0,15.0,83,47,18,0.00,40.00,7,3,19,0.00
2013-3-31,56.0,43.1,27.0,42.0,27.5,-99.9,94,60,31,0.00,40.00,15,5,29,0.09